Date String (YYYY-MM-DD hh:mm:ss) UTC,Instrument flags,absolute air pressure of the measurement (hPa),sample flow rate (lpm),inlet stack bypass flow (lpm),air temperature of the measurement (°C),ambient temperature measured by the external sensor (°C),aerosol sample conditioner tube jacket temperature (°C),OPC LED temperature (°C),internal box temperature (°C),relative humidity of the measurement (%),span deviation,mass concentration of particles derived from Lorenz-Mie calculation of OPC scattering (μg/m³),mass concentration of particles derived from Lorenz-Mie calculation of OPC scattering (μg/m³),mass concentration of particles derived from Lorenz-Mie calculation of OPC scattering (μg/m³)
DateTimeUTC,F1_M11,P_M11,Q1_M11,Q2_M11,T1_M11,T2_M11,T3_M11,T4_M11,T5_M11,U1_M11,ZSPAN_M11,X0_M11,X2_M11,X1_M11
2023-09-15 02:00:00,SystemResetWarning,0835.3,4.99,000.00,027.6,026.1,000.0,036.2,029.3,34.6,0000.0,0004.49,0002.44,0001.74
2023-09-15 02:01:00,SystemResetWarning,0835.3,4.99,000.00,027.6,026.1,000.0,036.2,029.3,34.6,0000.0,0004.50,0002.45,0001.78
2023-09-15 02:02:00,SystemResetWarning,0835.3,5.02,000.00,027.7,026.2,000.0,036.2,029.3,34.6,0000.0,0004.56,0002.51,0001.83
2023-09-15 02:03:00,SystemResetWarning,0835.4,5.01,000.00,027.7,026.2,000.0,036.2,029.4,34.6,0000.0,0004.45,0002.57,0001.87
2023-09-15 02:04:00,SystemResetWarning,0835.4,4.98,000.00,027.7,026.2,000.0,036.2,029.4,34.4,0000.0,0004.30,0002.69,0001.92
2023-09-15 02:05:00,SystemResetWarning,0835.4,5.00,000.00,027.7,026.3,000.0,036.2,029.4,34.3,0000.0,0004.24,0002.67,0001.94
2023-09-15 02:06:00,SystemResetWarning,0835.5,5.01,000.00,027.7,026.3,000.0,036.2,029.4,34.2,0000.0,0004.07,0002.62,0001.95
2023-09-15 02:07:00,SystemResetWarning,0835.5,5.01,000.00,027.7,026.3,000.0,036.2,029.4,34.2,0000.0,0004.15,0002.65,0001.97
2023-09-15 02:08:00,SystemResetWarning,0835.5,5.00,000.00,027.7,026.3,000.0,036.2,029.4,34.2,0000.0,0004.16,0002.67,0001.99
2023-09-15 02:09:00,SystemResetWarning,0835.5,5.00,000.00,027.7,026.3,000.0,036.2,029.4,34.2,0000.0,0004.10,0002.66,0002.00
2023-09-15 02:10:00,SystemResetWarning,0835.5,5.00,000.00,027.7,026.3,000.0,036.2,029.4,34.1,0000.0,0004.28,0002.73,0002.00
2023-09-15 02:11:00,SystemResetWarning,0835.5,5.00,000.00,027.7,026.3,000.0,036.2,029.4,34.1,0000.0,0004.38,0002.77,0002.00
2023-09-15 02:12:00,SystemResetWarning,0835.5,5.01,000.00,027.7,026.3,000.0,036.2,029.4,34.0,0000.0,0004.37,0002.77,0002.00
2023-09-15 02:13:00,SystemResetWarning,0835.5,5.00,000.00,027.7,026.3,000.0,036.2,029.4,34.0,0000.0,0004.31,0002.75,0002.00
2023-09-15 02:14:00,SystemResetWarning,0835.6,5.00,000.00,027.7,026.3,000.0,036.2,029.4,34.1,0000.0,0004.30,0002.77,0002.00
2023-09-15 02:15:00,SystemResetWarning,0835.6,4.99,000.00,027.7,026.3,000.0,036.2,029.4,34.1,0000.0,0004.27,0002.75,0001.99
2023-09-15 02:16:00,SystemResetWarning,0835.8,5.01,000.00,027.7,026.3,000.0,036.2,029.4,34.0,0000.0,0004.21,0002.73,0001.97
2023-09-15 02:17:00,SystemResetWarning,0835.6,5.02,000.00,027.7,026.4,000.0,036.2,029.4,34.1,0000.0,0004.18,0002.73,0001.98
2023-09-15 02:18:00,SystemResetWarning,0835.7,4.99,000.00,027.8,026.4,000.0,036.2,029.4,34.1,0000.0,0004.12,0002.69,0001.97
2023-09-15 02:19:00,SystemResetWarning,0835.6,5.00,000.00,027.8,026.5,000.0,036.2,029.5,34.1,0000.0,0005.04,0002.68,0001.97
2023-09-15 02:20:00,SystemResetWarning,0835.6,5.00,000.00,027.8,026.6,000.0,036.3,029.5,33.9,0000.0,0004.98,0002.65,0001.97
2023-09-15 02:21:00,SystemResetWarning,0835.6,5.01,000.00,027.9,026.6,000.0,036.3,029.5,34.0,0000.0,0004.88,0002.61,0001.98
2023-09-15 02:22:00,SystemResetWarning,0835.6,5.01,000.00,027.9,026.7,000.0,036.3,029.5,34.0,0000.0,0004.71,0002.54,0001.97
2023-09-15 02:23:00,SystemResetWarning,0835.7,4.99,000.00,027.9,026.7,000.0,036.3,029.6,33.9,0000.0,0004.64,0002.52,0001.97
2023-09-15 02:24:00,SystemResetWarning,0835.7,4.99,000.00,027.9,026.7,000.0,036.3,029.6,33.9,0000.0,0004.68,0002.54,0001.95
2023-09-15 02:25:00,SystemResetWarning,0835.7,4.99,000.00,027.9,026.7,000.0,036.3,029.6,34.0,0000.0,0004.56,0002.49,0001.96
2023-09-15 02:26:00,SystemResetWarning,0835.8,5.00,000.00,027.9,026.6,000.0,036.3,029.6,33.9,0000.0,0004.50,0002.46,0001.97
2023-09-15 02:27:00,SystemResetWarning,0835.8,5.00,000.00,027.9,026.6,000.0,036.3,029.6,34.0,0000.0,0004.81,0002.58,0001.99
2023-09-15 02:28:00,SystemResetWarning,0835.8,5.02,000.00,027.9,026.6,000.0,036.3,029.6,33.9,0000.0,0004.86,0002.61,0001.99
2023-09-15 02:29:00,SystemResetWarning,0835.8,5.00,000.00,027.9,026.6,000.0,036.3,029.6,33.9,0000.0,0004.78,0002.59,0002.00
2023-09-15 02:30:00,SystemResetWarning,0835.9,4.99,000.00,027.9,026.6,000.0,036.3,029.6,33.9,0000.0,0003.74,0002.55,0001.99
2023-09-15 02:31:00,SystemResetWarning,0835.9,5.00,000.00,027.9,026.7,000.0,036.4,029.6,33.9,0000.0,0003.83,0002.58,0001.99
2023-09-15 02:32:00,SystemResetWarning,0835.9,4.99,000.00,028.0,026.7,000.0,036.4,029.6,33.8,0000.0,0004.82,0002.59,0002.01
2023-09-15 02:33:00,SystemResetWarning,0835.9,5.01,000.00,028.0,026.8,000.0,036.4,029.6,33.8,0000.0,0005.05,0002.63,0002.03
2023-09-15 02:34:00,SystemResetWarning,0835.9,5.00,000.00,028.0,026.8,000.0,036.4,029.7,33.8,0000.0,0005.13,0002.65,0002.03
2023-09-15 02:35:00,SystemResetWarning,0835.9,5.01,000.00,028.0,026.8,000.0,036.4,029.7,33.7,0000.0,0005.11,0002.64,0002.04
2023-09-15 02:36:00,SystemResetWarning,0835.9,5.01,000.00,028.0,026.8,000.0,036.4,029.7,33.6,0000.0,0005.18,0002.66,0002.03
2023-09-15 02:37:00,SystemResetWarning,0835.9,4.99,000.00,028.0,026.8,000.0,036.4,029.7,33.6,0000.0,0005.22,0002.67,0002.04
2023-09-15 02:38:00,SystemResetWarning,0835.9,4.99,000.00,028.0,026.8,000.0,036.4,029.7,33.7,0000.0,0005.12,0002.63,0002.04
2023-09-15 02:39:00,SystemResetWarning,0835.9,5.00,000.00,028.1,026.8,000.0,036.5,029.7,33.6,0000.0,0004.99,0002.56,0002.03
2023-09-15 02:40:00,SystemResetWarning,0835.9,5.01,000.00,028.1,026.9,000.0,036.5,029.7,33.5,0000.0,0005.04,0002.57,0002.03
2023-09-15 02:41:00,SystemResetWarning,0835.9,5.00,000.00,028.1,026.9,000.0,036.5,029.7,33.4,0000.0,0005.00,0002.56,0002.02
2023-09-15 02:42:00,SystemResetWarning,0835.9,4.99,000.00,028.1,026.8,000.0,036.5,029.7,33.3,0000.0,0005.05,0002.55,0001.99
2023-09-15 02:43:00,SystemResetWarning,0835.9,5.00,000.00,028.1,026.8,000.0,036.5,029.7,33.3,0000.0,0004.56,0002.53,0001.96
2023-09-15 02:44:00,SystemResetWarning,0835.9,5.01,000.00,028.1,026.8,000.0,036.5,029.7,33.2,0000.0,0003.91,0002.52,0001.93
2023-09-15 02:45:00,SystemResetWarning,0835.9,5.01,000.00,028.1,026.8,000.0,036.5,029.7,33.1,0000.0,0003.96,0002.53,0001.92
2023-09-15 02:46:00,SystemResetWarning,0835.9,5.00,000.00,028.1,026.9,000.0,036.5,029.7,33.0,0000.0,0003.95,0002.53,0001.90
2023-09-15 02:47:00,SystemResetWarning,0835.9,4.99,000.00,028.1,026.9,000.0,036.5,029.8,32.9,0000.0,0003.86,0002.48,0001.88
2023-09-15 02:48:00,SystemResetWarning,0835.9,4.99,000.00,028.1,026.9,000.0,036.5,029.7,32.9,0000.0,0003.82,0002.46,0001.85
2023-09-15 02:49:00,SystemResetWarning,0835.9,5.00,000.00,028.2,026.9,000.0,036.6,029.7,32.9,0000.0,0003.67,0002.40,0001.82
2023-09-15 02:50:00,SystemResetWarning,0835.9,4.99,000.00,028.2,026.9,000.0,036.6,029.8,32.8,0000.0,0003.56,0002.37,0001.81
2023-09-15 02:51:00,SystemResetWarning,0835.9,5.01,000.00,028.2,026.8,000.0,036.6,029.8,32.8,0000.0,0003.42,0002.33,0001.82
2023-09-15 02:52:00,SystemResetWarning,0836.0,4.99,000.00,028.1,026.8,000.0,036.6,029.8,32.7,0000.0,0003.48,0002.37,0001.84
2023-09-15 02:53:00,SystemResetWarning,0835.9,5.01,000.00,028.1,026.8,000.0,036.6,029.8,32.6,0000.0,0003.39,0002.36,0001.88
2023-09-15 02:54:00,SystemResetWarning,0836.0,5.01,000.00,028.1,026.8,000.0,036.6,029.8,32.6,0000.0,0003.28,0002.33,0001.89
2023-09-15 02:55:00,SystemResetWarning,0836.0,5.01,000.00,028.1,026.8,000.0,036.6,029.8,32.5,0000.0,0003.25,0002.32,0001.88
2023-09-15 02:56:00,SystemResetWarning,0836.0,5.00,000.00,028.1,026.8,000.0,036.6,029.8,32.4,0000.0,0003.17,0002.27,0001.85
2023-09-15 02:57:00,SystemResetWarning,0836.1,5.00,000.00,028.1,026.7,000.0,036.6,029.8,32.4,0000.0,0003.22,0002.27,0001.85
2023-09-15 02:58:00,SystemResetWarning,0836.1,5.00,000.00,028.1,026.7,000.0,036.6,029.8,32.5,0000.0,0003.24,0002.30,0001.87
2023-09-15 02:59:00,SystemResetWarning,0836.1,5.01,000.00,028.1,026.6,000.0,036.6,029.7,32.4,0000.0,0003.19,0002.29,0001.88
